Time,TemperatureF,DewpointF,PressureIn,WindDirection,WindDirectionDegrees,WindSpeedMPH,WindSpeedGustMPH,Humidity,HourlyPrecipIn,Conditions,Clouds,dailyrainin,SoftwareType,DateUTC
2013-02-13 00:02:00,27.0,21.0,-100.00,West,268,6.0,-999.0,80,-99.99,,,-99.99,,2013-02-13 06:02:00,
2013-02-13 00:11:00,27.0,22.0,-100.00,West,259,7.0,-999.0,80,-99.99,,,-99.99,,2013-02-13 06:11:00,
2013-02-13 00:21:00,27.0,22.0,-100.00,WSW,245,7.0,-999.0,80,-99.99,,,-99.99,,2013-02-13 06:21:00,
2013-02-13 00:32:00,25.0,21.0,-100.00,WSW,248,9.0,-999.0,82,-99.99,,,-99.99,,2013-02-13 06:32:00,
2013-02-13 00:42:00,25.0,21.0,-100.00,WSW,248,9.0,-999.0,82,-99.99,,,-99.99,,2013-02-13 06:42:00,
2013-02-13 00:51:00,26.0,21.0,-100.00,West,263,12.0,-999.0,82,-99.99,,,-99.99,,2013-02-13 06:51:00,
2013-02-13 01:02:00,25.0,20.0,-100.00,West,262,9.0,-999.0,82,-99.99,,,-99.99,,2013-02-13 07:02:00,
2013-02-13 01:11:00,26.0,21.0,-100.00,West,260,13.0,-999.0,81,-99.99,,,-99.99,,2013-02-13 07:11:00,
2013-02-13 01:22:00,26.0,21.0,-100.00,West,266,14.0,-999.0,80,-99.99,,,-99.99,,2013-02-13 07:22:00,
2013-02-13 01:32:00,26.0,21.0,-100.00,West,262,12.0,-999.0,80,-99.99,,,-99.99,,2013-02-13 07:32:00,
2013-02-13 01:42:00,26.0,21.0,-100.00,West,262,11.0,-999.0,81,-99.99,,,-99.99,,2013-02-13 07:42:00,
2013-02-13 01:51:00,26.0,21.0,-100.00,West,262,11.0,-999.0,82,-99.99,,,-99.99,,2013-02-13 07:51:00,
2013-02-13 02:01:00,26.0,21.0,-100.00,West,265,9.0,-999.0,81,-99.99,,,-99.99,,2013-02-13 08:01:00,
2013-02-13 02:11:00,26.0,21.0,-100.00,West,260,12.0,-999.0,81,-99.99,,,-99.99,,2013-02-13 08:11:00,
2013-02-13 02:21:00,26.0,21.0,-100.00,West,260,10.0,-999.0,80,-99.99,,,-99.99,,2013-02-13 08:21:00,
2013-02-13 02:32:00,27.0,22.0,-100.00,WSW,245,7.0,-999.0,81,-99.99,,,-99.99,,2013-02-13 08:32:00,
2013-02-13 02:43:00,27.0,22.0,-100.00,West,260,9.0,-999.0,80,-99.99,,,-99.99,,2013-02-13 08:43:00,
2013-02-13 02:52:00,27.0,22.0,-100.00,West,266,10.0,-999.0,80,-99.99,,,-99.99,,2013-02-13 08:52:00,
2013-02-13 03:01:00,27.0,22.0,-100.00,West,260,11.0,-999.0,81,-99.99,,,-99.99,,2013-02-13 09:01:00,
2013-02-13 03:11:00,28.0,23.0,-100.00,West,260,12.0,-999.0,80,-99.99,,,-99.99,,2013-02-13 09:11:00,
2013-02-13 03:21:00,28.0,23.0,-100.00,WSW,240,10.0,-999.0,80,-99.99,,,-99.99,,2013-02-13 09:21:00,
2013-02-13 03:31:00,28.0,23.0,-100.00,WSW,243,10.0,-999.0,81,-99.99,,,-99.99,,2013-02-13 09:31:00,
2013-02-13 03:42:00,29.0,24.0,-100.00,WSW,247,11.0,-999.0,81,-99.99,,,-99.99,,2013-02-13 09:42:00,
2013-02-13 03:51:00,28.0,24.0,-100.00,SW,236,10.0,-999.0,83,-99.99,,,-99.99,,2013-02-13 09:51:00,
2013-02-13 04:01:00,28.0,24.0,-100.00,SW,236,10.0,-999.0,83,-99.99,,,-99.99,,2013-02-13 10:01:00,
2013-02-13 04:11:00,29.0,24.0,-100.00,SW,224,6.0,-999.0,81,-99.99,,,-99.99,,2013-02-13 10:11:00,
2013-02-13 04:21:00,29.0,23.0,-100.00,SW,229,6.0,-999.0,80,-99.99,,,-99.99,,2013-02-13 10:21:00,
2013-02-13 04:32:00,29.0,23.0,-100.00,WSW,238,10.0,-999.0,79,-99.99,,,-99.99,,2013-02-13 10:32:00,
2013-02-13 04:42:00,29.0,23.0,-100.00,WSW,244,16.0,-999.0,79,-99.99,,,-99.99,,2013-02-13 10:42:00,
2013-02-13 04:51:00,29.0,23.0,-100.00,WSW,249,9.0,-999.0,79,-99.99,,,-99.99,,2013-02-13 10:51:00,
2013-02-13 05:01:00,28.0,23.0,-100.00,WSW,249,13.0,-999.0,80,-99.99,,,-99.99,,2013-02-13 11:01:00,
2013-02-13 05:11:00,28.0,23.0,-100.00,WSW,253,12.0,-999.0,80,-99.99,,,-99.99,,2013-02-13 11:11:00,
2013-02-13 05:22:00,28.0,23.0,-100.00,WSW,254,11.0,-999.0,80,-99.99,,,-99.99,,2013-02-13 11:22:00,
2013-02-13 05:32:00,28.0,22.0,-100.00,WSW,251,13.0,-999.0,79,-99.99,,,-99.99,,2013-02-13 11:32:00,
2013-02-13 05:42:00,27.0,22.0,-100.00,WSW,250,8.0,-999.0,81,-99.99,,,-99.99,,2013-02-13 11:42:00,
2013-02-13 05:52:00,25.0,21.0,-100.00,WSW,247,6.0,-999.0,83,-99.99,,,-99.99,,2013-02-13 11:52:00,
2013-02-13 06:02:00,25.0,21.0,-100.00,WSW,247,6.0,-999.0,83,-99.99,,,-99.99,,2013-02-13 12:02:00,
2013-02-13 06:11:00,25.0,21.0,-100.00,WSW,249,10.0,-999.0,84,-99.99,,,-99.99,,2013-02-13 12:11:00,
2013-02-13 06:22:00,24.0,20.0,-100.00,WSW,251,13.0,-999.0,84,-99.99,,,-99.99,,2013-02-13 12:22:00,
2013-02-13 06:32:00,25.0,20.0,-100.00,WSW,249,11.0,-999.0,82,-99.99,,,-99.99,,2013-02-13 12:32:00,
2013-02-13 06:42:00,24.0,20.0,-100.00,West,259,6.0,-999.0,83,-99.99,,,-99.99,,2013-02-13 12:42:00,
2013-02-13 06:52:00,23.0,19.0,-100.00,WSW,248,9.0,-999.0,84,-99.99,,,-99.99,,2013-02-13 12:52:00,
2013-02-13 07:02:00,22.0,18.0,-100.00,West,263,9.0,-999.0,85,-99.99,,,-99.99,,2013-02-13 13:02:00,
2013-02-13 07:11:00,23.0,19.0,-100.00,WSW,251,9.0,-999.0,85,-99.99,,,-99.99,,2013-02-13 13:11:00,
2013-02-13 07:21:00,23.0,19.0,-100.00,WSW,246,9.0,-999.0,84,-99.99,,,-99.99,,2013-02-13 13:21:00,
2013-02-13 07:32:00,22.0,18.0,-100.00,WSW,250,7.0,-999.0,85,-99.99,,,-99.99,,2013-02-13 13:32:00,
2013-02-13 07:42:00,22.0,18.0,-100.00,West,263,5.0,-999.0,85,-99.99,,,-99.99,,2013-02-13 13:42:00,
2013-02-13 07:51:00,22.0,18.0,-100.00,WSW,249,4.0,-999.0,86,-99.99,,,-99.99,,2013-02-13 13:51:00,
2013-02-13 08:01:00,22.0,18.0,-100.00,WSW,249,7.0,-999.0,86,-99.99,,,-99.99,,2013-02-13 14:01:00,
2013-02-13 08:11:00,22.0,18.0,-100.00,WSW,242,6.0,-999.0,86,-99.99,,,-99.99,,2013-02-13 14:11:00,
2013-02-13 08:21:00,21.0,17.0,-100.00,WSW,254,6.0,-999.0,86,-99.99,,,-99.99,,2013-02-13 14:21:00,
2013-02-13 08:32:00,22.0,18.0,-100.00,WSW,244,7.0,-999.0,85,-99.99,,,-99.99,,2013-02-13 14:32:00,
2013-02-13 08:42:00,22.0,18.0,-100.00,WSW,246,9.0,-999.0,86,-99.99,,,-99.99,,2013-02-13 14:42:00,
2013-02-13 08:52:00,22.0,18.0,-100.00,WSW,255,10.0,-999.0,84,-99.99,,,-99.99,,2013-02-13 14:52:00,
2013-02-13 09:01:00,22.0,18.0,-100.00,WSW,255,10.0,-999.0,84,-99.99,,,-99.99,,2013-02-13 15:01:00,
2013-02-13 09:11:00,24.0,19.0,-100.00,WSW,243,9.0,-999.0,81,-99.99,,,-99.99,,2013-02-13 15:11:00,
2013-02-13 09:21:00,24.0,19.0,-100.00,WSW,242,9.0,-999.0,82,-99.99,,,-99.99,,2013-02-13 15:21:00,
2013-02-13 09:32:00,24.0,19.0,-100.00,WSW,242,8.0,-999.0,81,-99.99,,,-99.99,,2013-02-13 15:32:00,
2013-02-13 09:42:00,24.0,19.0,-100.00,WSW,246,11.0,-999.0,81,-99.99,,,-99.99,,2013-02-13 15:42:00,
2013-02-13 09:51:00,25.0,20.0,-100.00,WSW,245,11.0,-999.0,81,-99.99,,,-99.99,,2013-02-13 15:51:00,
2013-02-13 10:01:00,25.0,20.0,-100.00,WSW,241,11.0,-999.0,81,-99.99,,,-99.99,,2013-02-13 16:01:00,
2013-02-13 10:11:00,25.0,20.0,-100.00,WSW,243,7.0,-999.0,81,-99.99,,,-99.99,,2013-02-13 16:11:00,
2013-02-13 10:21:00,26.0,20.0,-100.00,West,263,9.0,-999.0,79,-99.99,,,-99.99,,2013-02-13 16:21:00,
2013-02-13 10:32:00,26.0,21.0,-100.00,West,262,8.0,-999.0,79,-99.99,,,-99.99,,2013-02-13 16:32:00,
2013-02-13 10:42:00,27.0,21.0,-100.00,West,274,5.0,-999.0,78,-99.99,,,-99.99,,2013-02-13 16:42:00,
2013-02-13 10:51:00,27.0,21.0,-100.00,West,267,8.0,-999.0,79,-99.99,,,-99.99,,2013-02-13 16:51:00,
2013-02-13 11:01:00,27.0,22.0,-100.00,WSW,242,4.0,-999.0,79,-99.99,,,-99.99,,2013-02-13 17:01:00,
2013-02-13 11:11:00,28.0,22.0,-100.00,WSW,239,5.0,-999.0,79,-99.99,,,-99.99,,2013-02-13 17:11:00,
2013-02-13 11:21:00,28.0,22.0,-100.00,WSW,242,7.0,-999.0,79,-99.99,,,-99.99,,2013-02-13 17:21:00,
2013-02-13 11:32:00,28.0,23.0,-100.00,WSW,237,9.0,-999.0,80,-99.99,,,-99.99,,2013-02-13 17:32:00,
2013-02-13 11:42:00,28.0,23.0,-100.00,SW,229,6.0,-999.0,81,-99.99,,,-99.99,,2013-02-13 17:42:00,
2013-02-13 11:52:00,29.0,24.0,-100.00,SW,230,4.0,-999.0,80,-99.99,,,-99.99,,2013-02-13 17:52:00,
2013-02-13 12:02:00,29.0,24.0,-100.00,SW,230,4.0,-999.0,80,-99.99,,,-99.99,,2013-02-13 18:02:00,
2013-02-13 12:11:00,30.0,24.0,-100.00,SW,226,6.0,-999.0,76,-99.99,,,-99.99,,2013-02-13 18:11:00,
2013-02-13 12:23:00,30.0,24.0,-100.00,SW,233,6.0,-999.0,77,-99.99,,,-99.99,,2013-02-13 18:23:00,
2013-02-13 12:32:00,31.0,24.0,-100.00,SW,215,5.0,-999.0,77,-99.99,,,-99.99,,2013-02-13 18:32:00,
2013-02-13 12:42:00,31.0,24.0,-100.00,SW,215,5.0,-999.0,77,-99.99,,,-99.99,,2013-02-13 18:42:00,
2013-02-13 12:52:00,32.0,25.0,-100.00,SW,221,4.0,-999.0,76,-99.99,,,-99.99,,2013-02-13 18:52:00,
2013-02-13 13:01:00,32.0,25.0,-100.00,SW,221,4.0,-999.0,76,-99.99,,,-99.99,,2013-02-13 19:01:00,
2013-02-13 13:11:00,32.0,27.0,-100.00,South,171,4.0,-999.0,81,-99.99,,,-99.99,,2013-02-13 19:11:00,
2013-02-13 13:21:00,32.0,27.0,-100.00,South,171,4.0,-999.0,81,-99.99,,,-99.99,,2013-02-13 19:21:00,
2013-02-13 13:32:00,32.0,27.0,-100.00,South,171,4.0,-999.0,81,-99.99,,,-99.99,,2013-02-13 19:32:00,
2013-02-13 15:11:00,31.0,31.0,-100.00,SE,139,3.0,-999.0,97,-99.99,,,-99.99,,2013-02-13 21:11:00,
2013-02-13 15:21:00,31.0,31.0,-100.00,SE,139,3.0,-999.0,97,-99.99,,,-99.99,,2013-02-13 21:21:00,
2013-02-13 15:31:00,31.0,30.0,-100.00,SE,141,6.0,-999.0,97,-99.99,,,-99.99,,2013-02-13 21:31:00,
2013-02-13 15:42:00,31.0,30.0,-100.00,SE,138,7.0,-999.0,98,-99.99,,,-99.99,,2013-02-13 21:42:00,
2013-02-13 15:52:00,31.0,30.0,-100.00,ESE,123,5.0,-999.0,99,-99.99,,,-99.99,,2013-02-13 21:52:00,
2013-02-13 16:02:00,31.0,30.0,-100.00,ESE,123,5.0,-999.0,99,-99.99,,,-99.99,,2013-02-13 22:02:00,
2013-02-13 16:11:00,31.0,31.0,-100.00,SE,127,3.0,-999.0,99,-99.99,,,-99.99,,2013-02-13 22:11:00,
2013-02-13 16:21:00,31.0,31.0,-100.00,SE,133,3.0,-999.0,98,-99.99,,,-99.99,,2013-02-13 22:21:00,
2013-02-13 16:31:00,31.0,31.0,-100.00,ESE,107,-999.0,-999.0,98,-99.99,,,-99.99,,2013-02-13 22:31:00,
2013-02-13 16:42:00,31.0,31.0,-100.00,East,97,2.0,-999.0,98,-99.99,,,-99.99,,2013-02-13 22:42:00,
2013-02-13 16:51:00,31.0,30.0,-100.00,East,97,1.0,-999.0,99,-99.99,,,-99.99,,2013-02-13 22:51:00,
2013-02-13 17:02:00,30.0,-99.9,-100.00,East,90,2.0,-999.0,-999,-99.99,,,-99.99,,2013-02-13 23:02:00,
2013-02-13 17:12:00,30.0,-99.9,-100.00,East,90,2.0,-999.0,-999,-99.99,,,-99.99,,2013-02-13 23:12:00,
2013-02-13 17:22:00,30.0,-99.9,-100.00,North,10,2.0,-999.0,-999,-99.99,,,-99.99,,2013-02-13 23:22:00,
2013-02-13 17:32:00,29.0,-99.9,-100.00,NNW,345,2.0,-999.0,-999,-99.99,,,-99.99,,2013-02-13 23:32:00,
2013-02-13 17:42:00,29.0,-99.9,-100.00,NNW,345,5.0,-999.0,-999,-99.99,,,-99.99,,2013-02-13 23:42:00,
2013-02-13 17:53:00,29.0,-99.9,-100.00,North,4,9.0,-999.0,-999,-99.99,,,-99.99,,2013-02-13 23:53:00,
2013-02-13 18:02:00,29.0,-99.9,-100.00,North,4,9.0,-999.0,-999,-99.99,,,-99.99,,2013-02-14 00:02:00,
2013-02-13 18:12:00,28.0,-99.9,-100.00,North,8,12.0,-999.0,-999,-99.99,,,-99.99,,2013-02-14 00:12:00,
2013-02-13 18:22:00,28.0,-99.9,-100.00,North,8,11.0,-999.0,-999,-99.99,,,-99.99,,2013-02-14 00:22:00,
2013-02-13 18:32:00,28.0,-99.9,-100.00,North,4,12.0,-999.0,-999,-99.99,,,-99.99,,2013-02-14 00:32:00,
2013-02-13 18:43:00,27.0,-99.9,-100.00,South,173,18.0,-999.0,-999,-99.99,,,-99.99,,2013-02-14 00:43:00,
2013-02-13 18:52:00,27.0,-99.9,-100.00,South,173,16.0,-999.0,-999,-99.99,,,-99.99,,2013-02-14 00:52:00,
2013-02-13 19:01:00,26.0,-99.9,-100.00,East,86,15.0,-999.0,-999,-99.99,,,-99.99,,2013-02-14 01:01:00,
2013-02-13 19:11:00,26.0,-99.9,-100.00,North,5,16.0,-999.0,-999,-99.99,,,-99.99,,2013-02-14 01:11:00,
2013-02-13 19:22:00,26.0,-99.9,-100.00,NNW,345,16.0,-999.0,-999,-99.99,,,-99.99,,2013-02-14 01:22:00,
2013-02-13 19:32:00,26.0,-99.9,-100.00,NNW,345,15.0,-999.0,-999,-99.99,,,-99.99,,2013-02-14 01:32:00,
2013-02-13 19:42:00,26.0,-99.9,-100.00,NNW,345,15.0,-999.0,-999,-99.99,,,-99.99,,2013-02-14 01:42:00,
2013-02-13 19:52:00,26.0,-99.9,-100.00,NNW,345,16.0,-999.0,-999,-99.99,,,-99.99,,2013-02-14 01:52:00,
2013-02-13 20:02:00,26.0,-99.9,-100.00,NNW,345,16.0,-999.0,-999,-99.99,,,-99.99,,2013-02-14 02:02:00,
2013-02-13 20:11:00,26.0,-99.9,-100.00,NNW,344,17.0,-999.0,-999,-99.99,,,-99.99,,2013-02-14 02:11:00,
2013-02-13 20:22:00,26.0,-99.9,-100.00,NNW,345,17.0,-999.0,-999,-99.99,,,-99.99,,2013-02-14 02:22:00,
2013-02-13 20:32:00,26.0,-99.9,-100.00,NNW,345,21.0,-999.0,-999,-99.99,,,-99.99,,2013-02-14 02:32:00,
2013-02-13 20:42:00,26.0,-99.9,-100.00,NNW,345,21.0,-999.0,-999,-99.99,,,-99.99,,2013-02-14 02:42:00,
2013-02-13 21:02:00,26.0,-99.9,-100.00,NNW,338,13.0,-999.0,-999,-99.99,,,-99.99,,2013-02-14 03:02:00,
2013-02-13 21:12:00,25.0,-99.9,-100.00,NNW,333,17.0,-999.0,-999,-99.99,,,-99.99,,2013-02-14 03:12:00,
2013-02-13 21:22:00,25.0,-99.9,-100.00,NNW,336,20.0,-999.0,-999,-99.99,,,-99.99,,2013-02-14 03:22:00,
2013-02-13 21:32:00,25.0,-99.9,-100.00,NNW,337,21.0,-999.0,-999,-99.99,,,-99.99,,2013-02-14 03:32:00,
2013-02-13 21:42:00,25.0,-99.9,-100.00,NNW,338,18.0,-999.0,-999,-99.99,,,-99.99,,2013-02-14 03:42:00,
2013-02-13 21:52:00,25.0,-99.9,-100.00,NNW,331,14.0,-999.0,-999,-99.99,,,-99.99,,2013-02-14 03:52:00,
2013-02-13 22:01:00,24.0,-99.9,-100.00,NNW,334,17.0,-999.0,-999,-99.99,,,-99.99,,2013-02-14 04:01:00,
2013-02-13 22:12:00,24.0,-99.9,-100.00,NNW,331,15.0,-999.0,-999,-99.99,,,-99.99,,2013-02-14 04:12:00,
2013-02-13 22:22:00,24.0,-99.9,-100.00,NNW,331,19.0,-999.0,-999,-99.99,,,-99.99,,2013-02-14 04:22:00,
2013-02-13 22:32:00,23.0,-99.9,-100.00,NNW,328,18.0,-999.0,-999,-99.99,,,-99.99,,2013-02-14 04:32:00,
2013-02-13 22:42:00,23.0,-99.9,-100.00,NW,324,16.0,-999.0,-999,-99.99,,,-99.99,,2013-02-14 04:42:00,
2013-02-13 22:52:00,23.0,-99.9,-100.00,NW,324,13.0,-999.0,-999,-99.99,,,-99.99,,2013-02-14 04:52:00,
2013-02-13 23:02:00,23.0,-99.9,-100.00,NNW,327,16.0,-999.0,-999,-99.99,,,-99.99,,2013-02-14 05:02:00,
2013-02-13 23:11:00,23.0,-99.9,-100.00,NW,326,20.0,-999.0,-999,-99.99,,,-99.99,,2013-02-14 05:11:00,
2013-02-13 23:22:00,23.0,-99.9,-100.00,NNW,328,17.0,-999.0,-999,-99.99,,,-99.99,,2013-02-14 05:22:00,
2013-02-13 23:32:00,23.0,-99.9,-100.00,NNW,333,18.0,-999.0,-999,-99.99,,,-99.99,,2013-02-14 05:32:00,
2013-02-13 23:42:00,23.0,22.0,-100.00,NNW,333,17.0,-999.0,98,-99.99,,,-99.99,,2013-02-14 05:42:00,
2013-02-13 23:52:00,23.0,22.0,-100.00,NW,323,14.0,-999.0,97,-99.99,,,-99.99,,2013-02-14 05:52:00,